GEFSNE_prec_meanprecacc_108.txt.gz
Total_Precipitation_Accumulation
1.62 1.61 1.60 1.53 1.53 1.51 1.60 1.61 1.55 1.31 1.04 0.77 0.64 0.56 0.67 0.74 0.97 0.95 0.81 0.84 0.74 0.59 0.49 0.43 0.41 0.37 0.40 0.47 0.58 0.71 0.85 0.89 0.84 0.76 0.74 0.75 0.74 0.77
1.39 1.43 1.45 1.46 1.52 1.53 1.57 1.63 1.59 1.43 1.24 1.00 0.81 0.69 0.73 0.71 0.83 0.78 0.82 1.00 0.85 0.67 0.53 0.45 0.39 0.36 0.33 0.31 0.32 0.34 0.39 0.45 0.48 0.50 0.51 0.55 0.62 0.69
1.04 1.07 1.14 1.20 1.29 1.34 1.45 1.52 1.55 1.48 1.22 1.08 0.93 0.81 0.83 0.83 0.84 0.80 0.87 0.90 0.82 0.75 0.60 0.48 0.43 0.37 0.34 0.33 0.29 0.28 0.29 0.32 0.35 0.37 0.40 0.43 0.43 0.44
0.78 0.85 0.90 0.97 1.06 1.14 1.21 1.30 1.42 1.45 1.35 1.19 1.05 0.91 0.81 0.82 0.97 1.02 1.01 0.94 0.92 1.00 0.88 0.70 0.61 0.51 0.41 0.35 0.32 0.29 0.28 0.29 0.31 0.33 0.33 0.37 0.43 0.43
0.52 0.56 0.65 0.74 0.85 0.93 0.99 1.07 1.20 1.26 1.34 1.24 1.16 1.07 0.91 0.83 0.95 0.97 1.04 1.21 1.13 1.19 1.29 1.08 0.84 0.69 0.57 0.49 0.41 0.36 0.33 0.31 0.28 0.30 0.33 0.36 0.39 0.42
0.49 0.50 0.53 0.54 0.60 0.70 0.84 1.02 1.17 1.30 1.35 1.28 1.23 1.18 1.10 0.99 1.03 1.09 1.17 1.26 1.32 1.20 1.21 1.17 1.08 0.97 0.81 0.68 0.61 0.53 0.48 0.44 0.42 0.39 0.37 0.36 0.35 0.36
0.47 0.51 0.52 0.48 0.47 0.51 0.52 0.70 0.91 1.13 1.26 1.32 1.32 1.33 1.26 1.18 1.06 1.11 1.22 1.36 1.48 1.48 1.37 1.23 1.17 1.03 0.93 0.83 0.74 0.68 0.63 0.59 0.55 0.50 0.46 0.45 0.43 0.40
0.51 0.54 0.52 0.46 0.50 0.48 0.47 0.49 0.59 0.73 0.90 1.04 1.12 1.17 1.22 1.29 1.34 1.34 1.36 1.43 1.51 1.53 1.39 1.41 1.34 1.20 1.03 0.86 0.84 0.83 0.80 0.74 0.66 0.58 0.51 0.46 0.44 0.46
0.47 0.61 0.67 0.60 0.59 0.62 0.63 0.57 0.50 0.47 0.60 0.80 0.92 0.97 1.05 1.15 1.35 1.40 1.42 1.42 1.33 1.38 1.27 1.33 1.29 1.17 1.06 0.99 0.97 0.89 0.87 0.80 0.72 0.65 0.60 0.55 0.51 0.50
0.42 0.54 0.79 0.83 0.73 0.69 0.73 0.82 0.74 0.57 0.55 0.59 0.73 0.84 0.89 1.03 1.34 1.56 1.52 1.32 1.24 1.29 1.21 1.22 1.19 1.09 1.02 0.99 1.00 0.90 0.85 0.78 0.72 0.67 0.62 0.60 0.59 0.58
0.36 0.48 0.64 0.79 0.73 0.69 0.69 0.76 0.80 0.70 0.63 0.62 0.57 0.64 0.76 0.92 1.17 1.41 1.49 1.43 1.29 1.25 1.11 1.03 1.06 1.08 1.11 1.06 1.00 0.96 0.87 0.83 0.81 0.77 0.71 0.67 0.67 0.72
0.22 0.38 0.54 0.54 0.50 0.55 0.67 0.78 0.87 0.72 0.61 0.69 0.68 0.70 0.71 0.88 1.20 1.38 1.45 1.40 1.28 1.25 1.16 1.06 1.05 1.08 1.25 1.23 1.07 1.00 0.94 0.93 0.90 0.86 0.83 0.80 0.84 0.84
0.15 0.29 0.38 0.35 0.34 0.42 0.53 0.67 0.80 0.66 0.68 0.82 0.86 0.83 0.89 0.94 1.06 1.18 1.34 1.42 1.31 1.15 1.09 1.17 1.20 1.12 1.08 1.10 1.11 1.05 0.97 0.91 0.89 0.86 0.86 0.85 0.87 0.85
0.16 0.23 0.26 0.22 0.23 0.27 0.33 0.46 0.57 0.64 0.73 0.85 0.93 0.90 0.85 0.90 0.96 0.99 1.09 1.18 1.14 1.08 1.01 0.94 0.99 0.93 0.86 0.80 0.81 0.90 0.94 0.92 0.88 0.86 0.84 0.94 0.90 0.90
0.14 0.18 0.19 0.20 0.22 0.25 0.28 0.35 0.49 0.68 0.85 0.86 0.80 0.77 0.79 0.84 0.84 0.94 1.02 1.07 1.07 1.05 0.95 0.81 0.78 0.80 0.76 0.70 0.65 0.68 0.79 0.86 0.83 0.79 0.77 0.79 0.79 0.83
0.15 0.15 0.15 0.20 0.23 0.24 0.29 0.40 0.56 0.75 0.83 0.75 0.71 0.61 0.63 0.78 0.82 0.82 0.86 0.89 0.94 0.98 0.89 0.84 0.79 0.74 0.72 0.68 0.64 0.61 0.60 0.65 0.72 0.76 0.75 0.72 0.72 0.73
0.13 0.19 0.24 0.30 0.35 0.42 0.51 0.58 0.59 0.63 0.69 0.62 0.66 0.60 0.57 0.65 0.69 0.68 0.69 0.66 0.68 0.69 0.70 0.72 0.74 0.71 0.65 0.65 0.65 0.61 0.60 0.56 0.56 0.65 0.72 0.73 0.70 0.71
0.17 0.25 0.33 0.41 0.47 0.53 0.57 0.58 0.57 0.58 0.62 0.59 0.57 0.57 0.52 0.52 0.54 0.55 0.57 0.59 0.63 0.62 0.55 0.51 0.53 0.58 0.61 0.65 0.63 0.57 0.58 0.60 0.62 0.64 0.63 0.61 0.59 0.61
0.15 0.26 0.46 0.50 0.48 0.53 0.56 0.54 0.45 0.39 0.39 0.41 0.39 0.38 0.37 0.38 0.41 0.43 0.43 0.48 0.51 0.49 0.50 0.50 0.48 0.49 0.50 0.48 0.46 0.43 0.50 0.54 0.55 0.59 0.60 0.57 0.53 0.53
0.12 0.18 0.31 0.35 0.38 0.43 0.42 0.38 0.31 0.24 0.23 0.23 0.22 0.23 0.24 0.26 0.28 0.31 0.31 0.31 0.36 0.38 0.39 0.42 0.41 0.41 0.43 0.43 0.40 0.36 0.35 0.40 0.42 0.44 0.47 0.51 0.54 0.64
0.13 0.17 0.21 0.24 0.25 0.24 0.24 0.23 0.21 0.20 0.18 0.16 0.17 0.19 0.19 0.19 0.18 0.19 0.23 0.26 0.26 0.25 0.29 0.31 0.32 0.36 0.36 0.39 0.39 0.33 0.30 0.35 0.37 0.35 0.39 0.46 0.47 0.46
0.12 0.13 0.15 0.15 0.16 0.16 0.17 0.19 0.19 0.21 0.20 0.18 0.16 0.16 0.16 0.15 0.14 0.14 0.15 0.16 0.18 0.21 0.22 0.25 0.28 0.29 0.29 0.33 0.33 0.30 0.29 0.31 0.35 0.43 0.41 0.39 0.35 0.33
0.14 0.13 0.13 0.14 0.15 0.17 0.19 0.20 0.19 0.21 0.22 0.20 0.18 0.17 0.16 0.14 0.13 0.13 0.14 0.14 0.15 0.17 0.18 0.21 0.24 0.25 0.25 0.25 0.26 0.27 0.28 0.29 0.31 0.34 0.35 0.37 0.33 0.30

GEFSNE_prec_meanprecacc_114.txt.gz
Total_Precipitation_Accumulation
1.62 1.62 1.61 1.54 1.54 1.52 1.61 1.62 1.56 1.34 1.08 0.80 0.66 0.58 0.69 0.78 1.01 0.98 0.84 0.88 0.78 0.63 0.53 0.46 0.44 0.41 0.46 0.55 0.67 0.81 0.96 0.98 0.92 0.82 0.80 0.80 0.80 0.84
1.40 1.43 1.45 1.47 1.52 1.53 1.59 1.65 1.60 1.45 1.27 1.03 0.83 0.71 0.76 0.75 0.87 0.82 0.85 1.03 0.88 0.71 0.57 0.48 0.42 0.40 0.37 0.36 0.37 0.39 0.45 0.51 0.52 0.55 0.56 0.59 0.66 0.75
1.04 1.08 1.15 1.21 1.30 1.35 1.46 1.54 1.56 1.49 1.23 1.11 0.95 0.83 0.86 0.87 0.88 0.84 0.91 0.93 0.85 0.78 0.64 0.52 0.46 0.41 0.39 0.37 0.33 0.31 0.32 0.36 0.40 0.41 0.45 0.46 0.46 0.47
0.78 0.85 0.91 0.97 1.07 1.14 1.21 1.30 1.42 1.46 1.35 1.20 1.06 0.93 0.83 0.85 1.00 1.06 1.06 0.99 0.96 1.04 0.93 0.75 0.63 0.53 0.45 0.41 0.36 0.33 0.32 0.33 0.35 0.37 0.37 0.41 0.46 0.46
0.52 0.56 0.65 0.74 0.86 0.94 0.99 1.07 1.21 1.26 1.34 1.24 1.17 1.08 0.92 0.85 0.98 1.00 1.09 1.27 1.18 1.24 1.34 1.14 0.88 0.72 0.59 0.52 0.46 0.40 0.37 0.34 0.31 0.33 0.36 0.39 0.41 0.45
0.49 0.50 0.53 0.54 0.60 0.71 0.85 1.03 1.18 1.30 1.35 1.29 1.24 1.20 1.11 1.00 1.06 1.13 1.22 1.32 1.37 1.24 1.26 1.23 1.13 1.00 0.83 0.70 0.64 0.56 0.51 0.47 0.45 0.42 0.40 0.40 0.38 0.38
0.47 0.51 0.52 0.49 0.48 0.52 0.53 0.71 0.92 1.14 1.27 1.33 1.33 1.34 1.27 1.18 1.08 1.14 1.27 1.42 1.53 1.53 1.42 1.27 1.20 1.06 0.95 0.85 0.76 0.71 0.67 0.62 0.59 0.53 0.49 0.48 0.46 0.42
0.51 0.54 0.52 0.47 0.51 0.49 0.48 0.50 0.61 0.74 0.91 1.05 1.14 1.20 1.23 1.30 1.36 1.37 1.40 1.47 1.54 1.55 1.43 1.45 1.38 1.23 1.05 0.88 0.86 0.85 0.83 0.77 0.68 0.61 0.55 0.50 0.48 0.49
0.47 0.61 0.67 0.60 0.59 0.63 0.64 0.57 0.51 0.50 0.63 0.81 0.94 0.99 1.06 1.17 1.36 1.42 1.44 1.45 1.36 1.41 1.30 1.37 1.33 1.19 1.09 1.02 1.01 0.93 0.90 0.83 0.75 0.67 0.62 0.58 0.53 0.53
0.43 0.55 0.79 0.84 0.73 0.69 0.73 0.82 0.74 0.58 0.56 0.61 0.75 0.86 0.90 1.05 1.37 1.59 1.56 1.35 1.27 1.32 1.24 1.26 1.23 1.11 1.05 1.02 1.04 0.93 0.88 0.81 0.74 0.69 0.65 0.62 0.61 0.60
0.37 0.49 0.65 0.80 0.74 0.70 0.70 0.77 0.80 0.70 0.63 0.63 0.59 0.66 0.78 0.95 1.20 1.44 1.54 1.48 1.33 1.28 1.15 1.07 1.11 1.11 1.14 1.09 1.03 1.00 0.90 0.86 0.83 0.79 0.74 0.70 0.69 0.74
0.23 0.40 0.55 0.55 0.51 0.57 0.68 0.79 0.88 0.72 0.62 0.69 0.69 0.71 0.73 0.91 1.22 1.41 1.49 1.45 1.34 1.31 1.22 1.12 1.11 1.13 1.29 1.26 1.09 1.03 0.97 0.97 0.93 0.89 0.86 0.83 0.87 0.86
0.17 0.31 0.40 0.37 0.36 0.43 0.54 0.68 0.81 0.66 0.68 0.82 0.86 0.84 0.91 0.96 1.08 1.20 1.36 1.44 1.34 1.19 1.15 1.23 1.27 1.19 1.15 1.15 1.15 1.08 0.99 0.94 0.91 0.88 0.89 0.87 0.89 0.87
0.19 0.25 0.29 0.25 0.25 0.29 0.35 0.47 0.58 0.65 0.73 0.86 0.94 0.91 0.86 0.93 0.98 1.01 1.10 1.20 1.16 1.11 1.04 0.99 1.03 0.98 0.91 0.85 0.85 0.93 0.96 0.94 0.90 0.87 0.87 0.96 0.92 0.92
0.17 0.21 0.22 0.22 0.25 0.27 0.29 0.37 0.51 0.70 0.86 0.86 0.80 0.77 0.80 0.86 0.86 0.96 1.04 1.08 1.08 1.07 0.98 0.84 0.82 0.84 0.80 0.75 0.69 0.71 0.80 0.87 0.84 0.80 0.78 0.80 0.81 0.84
0.18 0.18 0.18 0.23 0.26 0.26 0.32 0.43 0.58 0.78 0.85 0.77 0.72 0.62 0.65 0.80 0.84 0.84 0.88 0.91 0.96 0.99 0.90 0.85 0.81 0.77 0.75 0.71 0.67 0.64 0.62 0.67 0.73 0.76 0.76 0.73 0.72 0.74
0.16 0.23 0.27 0.33 0.38 0.45 0.55 0.62 0.63 0.67 0.73 0.65 0.68 0.62 0.60 0.67 0.71 0.70 0.71 0.68 0.69 0.70 0.71 0.72 0.76 0.73 0.68 0.67 0.67 0.63 0.62 0.57 0.56 0.65 0.73 0.74 0.71 0.72
0.20 0.28 0.36 0.44 0.49 0.57 0.62 0.63 0.62 0.63 0.66 0.62 0.61 0.60 0.55 0.55 0.57 0.58 0.60 0.62 0.66 0.63 0.56 0.52 0.54 0.60 0.63 0.67 0.64 0.58 0.60 0.61 0.63 0.65 0.63 0.61 0.60 0.62
0.18 0.29 0.48 0.53 0.51 0.57 0.61 0.60 0.51 0.44 0.45 0.46 0.45 0.43 0.41 0.42 0.46 0.47 0.48 0.52 0.54 0.51 0.52 0.52 0.50 0.51 0.52 0.49 0.47 0.45 0.51 0.56 0.57 0.60 0.62 0.58 0.54 0.54
0.13 0.21 0.34 0.38 0.41 0.47 0.47 0.45 0.38 0.31 0.30 0.30 0.30 0.31 0.31 0.33 0.34 0.37 0.36 0.35 0.40 0.41 0.42 0.44 0.43 0.43 0.45 0.45 0.42 0.37 0.37 0.42 0.44 0.46 0.49 0.52 0.55 0.65
0.14 0.19 0.23 0.27 0.28 0.27 0.28 0.29 0.28 0.29 0.28 0.27 0.28 0.29 0.30 0.30 0.28 0.27 0.29 0.31 0.30 0.30 0.32 0.34 0.33 0.38 0.39 0.43 0.42 0.35 0.32 0.37 0.39 0.36 0.40 0.47 0.48 0.47
0.13 0.15 0.17 0.17 0.18 0.19 0.20 0.23 0.25 0.29 0.30 0.29 0.27 0.28 0.30 0.30 0.28 0.26 0.24 0.24 0.25 0.27 0.27 0.29 0.31 0.32 0.33 0.37 0.37 0.33 0.32 0.33 0.37 0.43 0.42 0.40 0.36 0.33
0.15 0.14 0.15 0.16 0.17 0.19 0.22 0.24 0.24 0.28 0.31 0.30 0.30 0.30 0.31 0.31 0.30 0.29 0.28 0.26 0.25 0.26 0.27 0.29 0.29 0.30 0.30 0.30 0.30 0.31 0.31 0.31 0.33 0.35 0.36 0.37 0.34 0.31

GEFSNE_prec_meanprecacc_120.txt.gz
Total_Precipitation_Accumulation
1.63 1.62 1.61 1.54 1.55 1.53 1.61 1.63 1.58 1.35 1.09 0.81 0.68 0.60 0.71 0.80 1.06 1.02 0.87 0.91 0.83 0.68 0.59 0.53 0.51 0.49 0.54 0.63 0.76 0.94 1.09 1.11 1.03 0.89 0.86 0.86 0.88 0.96
1.40 1.44 1.46 1.47 1.53 1.54 1.59 1.65 1.61 1.46 1.27 1.04 0.84 0.72 0.79 0.77 0.91 0.86 0.90 1.08 0.93 0.77 0.64 0.55 0.49 0.47 0.44 0.43 0.44 0.46 0.53 0.58 0.60 0.61 0.61 0.64 0.71 0.83
1.04 1.08 1.15 1.22 1.30 1.35 1.47 1.54 1.56 1.49 1.23 1.11 0.96 0.84 0.88 0.91 0.93 0.88 0.95 0.97 0.89 0.83 0.70 0.58 0.52 0.46 0.43 0.42 0.39 0.37 0.37 0.41 0.45 0.48 0.50 0.52 0.51 0.51
0.78 0.85 0.91 0.97 1.07 1.15 1.22 1.30 1.43 1.46 1.36 1.20 1.07 0.94 0.85 0.87 1.03 1.09 1.09 1.02 0.99 1.07 0.98 0.81 0.70 0.58 0.49 0.44 0.41 0.38 0.37 0.38 0.40 0.41 0.42 0.46 0.52 0.52
0.52 0.56 0.66 0.74 0.86 0.94 1.00 1.08 1.22 1.27 1.34 1.25 1.18 1.09 0.93 0.86 1.00 1.02 1.11 1.29 1.20 1.27 1.39 1.20 0.94 0.76 0.63 0.56 0.50 0.45 0.42 0.39 0.37 0.38 0.42 0.46 0.47 0.50
0.49 0.50 0.53 0.54 0.61 0.72 0.86 1.03 1.18 1.31 1.36 1.29 1.24 1.20 1.11 1.02 1.07 1.14 1.23 1.33 1.39 1.27 1.30 1.28 1.20 1.07 0.89 0.75 0.69 0.63 0.58 0.54 0.52 0.48 0.46 0.46 0.45 0.44
0.47 0.51 0.52 0.49 0.49 0.53 0.54 0.72 0.93 1.15 1.28 1.33 1.34 1.35 1.27 1.19 1.10 1.16 1.28 1.42 1.54 1.55 1.46 1.32 1.27 1.13 1.01 0.90 0.81 0.76 0.73 0.69 0.66 0.60 0.56 0.54 0.52 0.49
0.51 0.54 0.52 0.47 0.52 0.51 0.49 0.51 0.62 0.76 0.92 1.05 1.15 1.21 1.24 1.31 1.37 1.38 1.41 1.49 1.56 1.57 1.46 1.49 1.43 1.30 1.13 0.94 0.91 0.90 0.87 0.83 0.75 0.68 0.62 0.57 0.55 0.56
0.48 0.61 0.67 0.61 0.60 0.64 0.66 0.60 0.53 0.52 0.64 0.82 0.95 1.02 1.09 1.18 1.38 1.43 1.45 1.46 1.38 1.45 1.33 1.40 1.37 1.24 1.16 1.10 1.09 0.98 0.95 0.87 0.80 0.72 0.67 0.63 0.60 0.60
0.43 0.55 0.80 0.84 0.74 0.70 0.75 0.85 0.77 0.61 0.58 0.62 0.76 0.89 0.93 1.08 1.40 1.61 1.57 1.37 1.30 1.36 1.29 1.31 1.27 1.16 1.10 1.08 1.11 1.00 0.93 0.85 0.78 0.73 0.69 0.66 0.65 0.64
0.37 0.49 0.65 0.80 0.74 0.70 0.70 0.78 0.81 0.72 0.65 0.64 0.60 0.68 0.80 0.97 1.23 1.48 1.57 1.50 1.36 1.32 1.19 1.12 1.16 1.17 1.20 1.15 1.08 1.05 0.96 0.91 0.87 0.83 0.78 0.73 0.73 0.78
0.23 0.40 0.55 0.55 0.52 0.57 0.69 0.80 0.89 0.73 0.63 0.71 0.70 0.72 0.74 0.92 1.24 1.43 1.52 1.48 1.37 1.34 1.26 1.16 1.15 1.18 1.37 1.33 1.16 1.09 1.02 1.01 0.97 0.93 0.89 0.87 0.91 0.91
0.17 0.31 0.40 0.37 0.36 0.43 0.55 0.69 0.82 0.68 0.69 0.84 0.88 0.86 0.92 0.97 1.09 1.22 1.39 1.48 1.38 1.22 1.17 1.27 1.33 1.25 1.21 1.22 1.21 1.13 1.05 0.99 0.95 0.92 0.92 0.91 0.93 0.91
0.19 0.25 0.29 0.25 0.25 0.29 0.35 0.48 0.59 0.67 0.75 0.88 0.96 0.92 0.88 0.94 1.00 1.02 1.12 1.22 1.20 1.15 1.08 1.02 1.10 1.06 0.99 0.93 0.93 1.00 1.02 0.99 0.94 0.90 0.89 0.99 0.96 0.96
0.17 0.21 0.22 0.23 0.25 0.27 0.30 0.37 0.52 0.72 0.89 0.89 0.83 0.79 0.82 0.88 0.88 0.98 1.05 1.10 1.11 1.10 1.01 0.88 0.86 0.90 0.88 0.83 0.77 0.79 0.88 0.94 0.90 0.83 0.80 0.82 0.83 0.88
0.18 0.18 0.18 0.23 0.26 0.27 0.32 0.44 0.60 0.80 0.89 0.81 0.75 0.65 0.66 0.81 0.86 0.86 0.90 0.93 0.98 1.02 0.93 0.88 0.84 0.81 0.81 0.77 0.74 0.71 0.70 0.74 0.79 0.81 0.79 0.76 0.75 0.77
0.16 0.23 0.27 0.33 0.39 0.45 0.56 0.63 0.65 0.70 0.76 0.69 0.72 0.66 0.62 0.69 0.73 0.72 0.74 0.71 0.72 0.73 0.74 0.75 0.78 0.76 0.73 0.73 0.74 0.71 0.69 0.64 0.63 0.72 0.78 0.77 0.74 0.74
0.20 0.28 0.36 0.44 0.50 0.57 0.63 0.64 0.64 0.66 0.69 0.66 0.64 0.64 0.58 0.58 0.60 0.61 0.63 0.66 0.69 0.67 0.60 0.56 0.58 0.64 0.67 0.73 0.71 0.65 0.66 0.68 0.69 0.71 0.70 0.67 0.63 0.64
0.18 0.29 0.48 0.54 0.52 0.58 0.62 0.61 0.52 0.46 0.48 0.50 0.49 0.47 0.46 0.46 0.50 0.51 0.52 0.57 0.59 0.56 0.57 0.57 0.55 0.57 0.58 0.54 0.52 0.50 0.57 0.61 0.62 0.65 0.66 0.63 0.58 0.56
0.13 0.21 0.34 0.38 0.41 0.47 0.47 0.45 0.39 0.32 0.32 0.33 0.33 0.35 0.36 0.38 0.39 0.42 0.41 0.41 0.46 0.47 0.47 0.49 0.49 0.50 0.51 0.50 0.46 0.41 0.41 0.47 0.49 0.51 0.53 0.56 0.59 0.69
0.14 0.19 0.24 0.27 0.28 0.28 0.28 0.29 0.29 0.30 0.29 0.29 0.31 0.32 0.34 0.34 0.33 0.32 0.35 0.38 0.38 0.38 0.39 0.39 0.38 0.44 0.47 0.51 0.49 0.39 0.35 0.41 0.44 0.42 0.45 0.52 0.52 0.50
0.13 0.15 0.17 0.17 0.18 0.19 0.20 0.23 0.25 0.29 0.30 0.30 0.30 0.31 0.33 0.34 0.32 0.30 0.30 0.30 0.32 0.34 0.34 0.36 0.39 0.41 0.42 0.46 0.43 0.38 0.36 0.37 0.41 0.49 0.48 0.45 0.41 0.38
0.15 0.14 0.15 0.16 0.17 0.19 0.22 0.24 0.25 0.28 0.31 0.31 0.32 0.33 0.34 0.35 0.34 0.33 0.33 0.32 0.32 0.34 0.36 0.37 0.38 0.39 0.39 0.39 0.38 0.37 0.36 0.37 0.39 0.41 0.41 0.42 0.38 0.34

GEFSNE_prec_meanprecacc_126.txt.gz
Total_Precipitation_Accumulation
1.63 1.62 1.62 1.55 1.55 1.53 1.61 1.64 1.61 1.39 1.11 0.84 0.70 0.61 0.72 0.81 1.07 1.04 0.88 0.92 0.84 0.71 0.62 0.56 0.56 0.60 0.69 0.74 0.87 1.03 1.18 1.20 1.14 1.01 0.95 0.93 0.94 1.03
1.40 1.44 1.46 1.48 1.53 1.54 1.60 1.66 1.61 1.48 1.29 1.05 0.86 0.73 0.79 0.78 0.92 0.88 0.93 1.10 0.94 0.79 0.68 0.60 0.56 0.56 0.56 0.53 0.54 0.54 0.59 0.64 0.67 0.69 0.69 0.71 0.77 0.88
1.04 1.08 1.15 1.22 1.31 1.36 1.47 1.54 1.57 1.50 1.24 1.12 0.96 0.85 0.89 0.92 0.94 0.91 0.97 1.00 0.91 0.84 0.72 0.62 0.58 0.55 0.55 0.52 0.48 0.45 0.43 0.45 0.49 0.52 0.55 0.57 0.56 0.56
0.78 0.85 0.91 0.98 1.08 1.15 1.22 1.31 1.43 1.47 1.36 1.21 1.07 0.95 0.85 0.88 1.05 1.11 1.10 1.03 1.01 1.09 1.00 0.83 0.73 0.64 0.58 0.54 0.49 0.45 0.43 0.43 0.43 0.44 0.45 0.49 0.56 0.56
0.52 0.56 0.66 0.74 0.87 0.95 1.01 1.09 1.23 1.27 1.35 1.25 1.18 1.09 0.93 0.87 1.00 1.03 1.12 1.30 1.21 1.28 1.40 1.22 0.97 0.81 0.70 0.65 0.59 0.52 0.48 0.45 0.41 0.42 0.46 0.49 0.51 0.54
0.49 0.50 0.53 0.54 0.62 0.73 0.86 1.04 1.19 1.32 1.36 1.29 1.24 1.21 1.11 1.02 1.08 1.14 1.24 1.34 1.40 1.27 1.31 1.29 1.23 1.10 0.92 0.80 0.77 0.70 0.64 0.60 0.57 0.52 0.50 0.50 0.49 0.49
0.47 0.51 0.52 0.49 0.49 0.53 0.55 0.73 0.94 1.16 1.28 1.34 1.35 1.36 1.28 1.20 1.10 1.17 1.29 1.43 1.55 1.56 1.47 1.33 1.29 1.16 1.04 0.94 0.86 0.81 0.79 0.74 0.71 0.65 0.61 0.59 0.56 0.53
0.51 0.54 0.52 0.47 0.52 0.51 0.49 0.52 0.62 0.77 0.94 1.07 1.17 1.22 1.25 1.32 1.38 1.39 1.42 1.50 1.58 1.58 1.47 1.50 1.45 1.33 1.16 0.98 0.96 0.95 0.91 0.86 0.79 0.72 0.66 0.62 0.60 0.61
0.48 0.61 0.67 0.61 0.60 0.64 0.66 0.60 0.54 0.53 0.66 0.84 0.97 1.03 1.10 1.20 1.39 1.44 1.47 1.48 1.40 1.46 1.34 1.41 1.38 1.26 1.18 1.14 1.14 1.05 1.01 0.92 0.83 0.77 0.73 0.69 0.65 0.66
0.43 0.55 0.80 0.84 0.74 0.70 0.75 0.85 0.77 0.61 0.59 0.64 0.78 0.90 0.95 1.10 1.41 1.63 1.60 1.39 1.32 1.38 1.30 1.32 1.28 1.18 1.12 1.11 1.15 1.05 1.00 0.92 0.84 0.78 0.73 0.71 0.71 0.71
0.37 0.49 0.65 0.80 0.75 0.71 0.71 0.78 0.82 0.72 0.66 0.66 0.62 0.70 0.83 0.99 1.25 1.50 1.61 1.55 1.39 1.34 1.20 1.13 1.17 1.18 1.21 1.17 1.11 1.09 1.00 0.97 0.93 0.89 0.83 0.78 0.77 0.84
0.24 0.40 0.55 0.55 0.52 0.58 0.69 0.80 0.89 0.74 0.64 0.72 0.71 0.74 0.76 0.94 1.26 1.46 1.56 1.54 1.42 1.38 1.29 1.18 1.17 1.20 1.38 1.35 1.18 1.12 1.05 1.06 1.03 0.99 0.95 0.93 0.98 0.97
0.18 0.32 0.40 0.37 0.36 0.44 0.56 0.69 0.83 0.69 0.70 0.84 0.88 0.87 0.94 0.99 1.11 1.24 1.43 1.54 1.42 1.26 1.20 1.30 1.35 1.27 1.24 1.25 1.24 1.17 1.10 1.03 1.00 0.98 0.98 0.97 0.99 0.97
0.19 0.26 0.29 0.25 0.25 0.29 0.36 0.48 0.60 0.67 0.76 0.88 0.96 0.93 0.89 0.96 1.01 1.04 1.14 1.27 1.25 1.19 1.10 1.05 1.13 1.09 1.03 0.96 0.97 1.05 1.07 1.04 1.00 0.98 0.97 1.07 1.03 1.03
0.17 0.21 0.22 0.23 0.26 0.27 0.30 0.38 0.53 0.72 0.89 0.90 0.84 0.80 0.83 0.89 0.90 1.00 1.08 1.12 1.15 1.16 1.06 0.90 0.89 0.94 0.93 0.87 0.80 0.83 0.93 0.99 0.95 0.89 0.88 0.91 0.91 0.95
0.18 0.18 0.18 0.23 0.27 0.27 0.33 0.45 0.62 0.81 0.89 0.81 0.76 0.66 0.67 0.82 0.88 0.89 0.93 0.95 1.01 1.07 0.99 0.91 0.87 0.85 0.85 0.81 0.77 0.75 0.74 0.79 0.84 0.87 0.86 0.82 0.81 0.83
0.16 0.23 0.27 0.33 0.39 0.46 0.56 0.65 0.67 0.71 0.77 0.69 0.73 0.67 0.63 0.70 0.74 0.74 0.77 0.74 0.74 0.75 0.78 0.79 0.81 0.79 0.77 0.78 0.79 0.75 0.74 0.69 0.67 0.77 0.85 0.85 0.80 0.80
0.20 0.28 0.36 0.44 0.50 0.58 0.64 0.65 0.65 0.67 0.70 0.66 0.65 0.64 0.59 0.59 0.61 0.62 0.66 0.69 0.72 0.68 0.62 0.59 0.61 0.67 0.71 0.77 0.75 0.70 0.72 0.73 0.74 0.76 0.76 0.75 0.70 0.70
0.18 0.29 0.48 0.54 0.52 0.58 0.62 0.61 0.53 0.47 0.48 0.50 0.49 0.48 0.46 0.47 0.51 0.53 0.54 0.60 0.62 0.58 0.58 0.59 0.58 0.60 0.62 0.58 0.55 0.53 0.62 0.66 0.68 0.71 0.72 0.69 0.64 0.62
0.13 0.21 0.34 0.38 0.41 0.47 0.47 0.45 0.39 0.33 0.33 0.33 0.34 0.35 0.36 0.39 0.40 0.43 0.43 0.43 0.48 0.49 0.49 0.51 0.52 0.53 0.55 0.55 0.50 0.44 0.45 0.52 0.55 0.57 0.59 0.62 0.65 0.75
0.14 0.19 0.24 0.27 0.28 0.28 0.28 0.29 0.29 0.30 0.29 0.29 0.31 0.33 0.34 0.35 0.34 0.33 0.36 0.40 0.40 0.40 0.42 0.42 0.41 0.47 0.51 0.56 0.53 0.42 0.37 0.44 0.49 0.47 0.52 0.60 0.60 0.57
0.13 0.15 0.17 0.17 0.18 0.19 0.20 0.23 0.25 0.29 0.30 0.30 0.30 0.31 0.34 0.34 0.33 0.31 0.31 0.33 0.34 0.37 0.37 0.38 0.41 0.44 0.47 0.52 0.48 0.41 0.38 0.40 0.45 0.54 0.54 0.53 0.49 0.45
0.15 0.14 0.15 0.16 0.17 0.19 0.22 0.24 0.25 0.28 0.31 0.31 0.33 0.34 0.35 0.35 0.35 0.35 0.34 0.34 0.34 0.37 0.39 0.40 0.42 0.44 0.44 0.44 0.43 0.41 0.40 0.41 0.43 0.47 0.47 0.48 0.45 0.41

GEFSNE_prec_meanprecacc_132.txt.gz
Total_Precipitation_Accumulation
1.64 1.64 1.64 1.57 1.56 1.55 1.64 1.69 1.68 1.45 1.17 0.90 0.73 0.65 0.77 0.83 1.08 1.06 0.91 0.93 0.84 0.71 0.62 0.56 0.57 0.61 0.70 0.77 0.90 1.06 1.23 1.28 1.20 1.09 1.04 1.00 0.98 1.07
1.41 1.45 1.49 1.50 1.55 1.55 1.61 1.68 1.65 1.53 1.33 1.08 0.88 0.77 0.83 0.79 0.93 0.91 0.97 1.12 0.95 0.79 0.68 0.61 0.57 0.57 0.58 0.57 0.58 0.57 0.62 0.68 0.72 0.76 0.76 0.78 0.83 0.93
1.05 1.10 1.17 1.23 1.32 1.37 1.49 1.56 1.59 1.53 1.28 1.13 0.98 0.88 0.92 0.96 0.97 0.93 0.99 1.01 0.92 0.85 0.72 0.63 0.59 0.56 0.58 0.58 0.57 0.50 0.46 0.48 0.53 0.58 0.61 0.63 0.62 0.61
0.80 0.87 0.92 0.98 1.09 1.17 1.24 1.33 1.46 1.49 1.38 1.22 1.08 0.96 0.89 0.93 1.09 1.14 1.12 1.05 1.03 1.10 1.01 0.84 0.74 0.65 0.61 0.61 0.63 0.58 0.50 0.47 0.47 0.48 0.49 0.54 0.62 0.62
0.52 0.57 0.67 0.74 0.88 0.97 1.02 1.11 1.25 1.29 1.36 1.26 1.19 1.11 0.96 0.90 1.04 1.06 1.15 1.31 1.22 1.29 1.41 1.23 0.98 0.81 0.71 0.70 0.72 0.67 0.60 0.52 0.46 0.47 0.50 0.54 0.55 0.59
0.49 0.50 0.53 0.55 0.62 0.74 0.87 1.05 1.21 1.33 1.37 1.30 1.26 1.22 1.12 1.03 1.10 1.16 1.26 1.36 1.41 1.28 1.32 1.30 1.23 1.10 0.93 0.83 0.84 0.84 0.79 0.72 0.66 0.60 0.57 0.56 0.54 0.53
0.47 0.51 0.52 0.49 0.49 0.54 0.55 0.73 0.95 1.18 1.29 1.35 1.36 1.36 1.29 1.21 1.12 1.18 1.30 1.45 1.57 1.57 1.48 1.34 1.30 1.17 1.05 0.96 0.90 0.90 0.91 0.88 0.84 0.76 0.70 0.67 0.62 0.58
0.51 0.55 0.52 0.47 0.52 0.51 0.49 0.52 0.62 0.78 0.96 1.09 1.18 1.23 1.26 1.34 1.40 1.40 1.44 1.52 1.60 1.60 1.48 1.51 1.46 1.34 1.17 0.99 0.99 1.00 0.99 0.97 0.91 0.85 0.77 0.70 0.67 0.68
0.48 0.62 0.68 0.61 0.60 0.64 0.66 0.60 0.54 0.53 0.68 0.86 0.99 1.04 1.11 1.21 1.42 1.46 1.48 1.51 1.44 1.49 1.36 1.43 1.40 1.28 1.19 1.15 1.15 1.08 1.05 0.98 0.92 0.86 0.83 0.78 0.73 0.73
0.44 0.55 0.81 0.85 0.74 0.70 0.75 0.85 0.77 0.61 0.60 0.65 0.80 0.91 0.96 1.12 1.43 1.65 1.62 1.42 1.36 1.42 1.33 1.34 1.30 1.19 1.13 1.11 1.16 1.07 1.02 0.95 0.89 0.84 0.81 0.78 0.78 0.78
0.38 0.50 0.66 0.81 0.75 0.71 0.71 0.78 0.82 0.72 0.66 0.67 0.64 0.71 0.83 1.00 1.26 1.52 1.64 1.59 1.43 1.38 1.25 1.15 1.18 1.20 1.23 1.18 1.12 1.10 1.03 0.99 0.97 0.93 0.88 0.84 0.84 0.91
0.24 0.41 0.56 0.55 0.52 0.59 0.70 0.81 0.90 0.74 0.64 0.73 0.72 0.74 0.76 0.95 1.27 1.46 1.58 1.58 1.46 1.43 1.32 1.21 1.19 1.22 1.40 1.36 1.19 1.13 1.07 1.08 1.06 1.02 0.99 0.97 1.03 1.03
0.19 0.32 0.40 0.37 0.37 0.45 0.57 0.70 0.83 0.69 0.70 0.84 0.89 0.87 0.94 0.99 1.11 1.24 1.44 1.56 1.46 1.30 1.24 1.34 1.38 1.30 1.26 1.27 1.26 1.18 1.11 1.05 1.02 1.01 1.02 1.01 1.03 1.01
0.20 0.26 0.29 0.26 0.28 0.33 0.38 0.49 0.60 0.68 0.76 0.89 0.96 0.93 0.89 0.96 1.02 1.05 1.15 1.27 1.27 1.21 1.13 1.07 1.16 1.12 1.06 0.99 0.99 1.06 1.09 1.07 1.03 1.00 1.00 1.12 1.08 1.08
0.18 0.22 0.23 0.25 0.29 0.30 0.31 0.39 0.54 0.73 0.90 0.90 0.84 0.81 0.83 0.89 0.90 1.01 1.09 1.13 1.16 1.17 1.07 0.91 0.90 0.96 0.96 0.90 0.83 0.85 0.96 1.02 0.98 0.92 0.91 0.95 0.96 1.00
0.18 0.19 0.19 0.24 0.28 0.28 0.34 0.46 0.62 0.81 0.90 0.81 0.76 0.66 0.67 0.82 0.88 0.89 0.94 0.96 1.02 1.08 1.00 0.93 0.88 0.87 0.88 0.85 0.81 0.78 0.78 0.83 0.88 0.90 0.89 0.86 0.85 0.88
0.16 0.23 0.27 0.34 0.39 0.46 0.56 0.65 0.67 0.71 0.77 0.69 0.73 0.67 0.63 0.70 0.74 0.75 0.77 0.74 0.75 0.76 0.79 0.81 0.83 0.81 0.80 0.81 0.82 0.78 0.78 0.74 0.72 0.82 0.89 0.88 0.84 0.84
0.20 0.28 0.36 0.44 0.50 0.58 0.64 0.65 0.65 0.67 0.70 0.66 0.65 0.64 0.59 0.59 0.61 0.62 0.66 0.69 0.72 0.70 0.64 0.61 0.63 0.69 0.73 0.79 0.79 0.74 0.75 0.77 0.78 0.80 0.80 0.79 0.74 0.73
0.18 0.29 0.48 0.54 0.52 0.58 0.63 0.61 0.53 0.47 0.48 0.50 0.49 0.48 0.46 0.47 0.51 0.53 0.54 0.61 0.63 0.59 0.60 0.60 0.60 0.62 0.64 0.60 0.57 0.56 0.65 0.70 0.72 0.74 0.76 0.73 0.67 0.65
0.14 0.21 0.34 0.38 0.41 0.47 0.48 0.45 0.39 0.33 0.33 0.33 0.34 0.35 0.36 0.39 0.40 0.43 0.44 0.44 0.50 0.50 0.50 0.52 0.53 0.54 0.57 0.57 0.52 0.46 0.47 0.55 0.58 0.61 0.62 0.65 0.68 0.78
0.14 0.19 0.24 0.27 0.28 0.28 0.28 0.29 0.29 0.30 0.30 0.30 0.31 0.33 0.34 0.35 0.34 0.34 0.37 0.40 0.41 0.41 0.43 0.43 0.42 0.49 0.53 0.59 0.57 0.45 0.39 0.46 0.50 0.51 0.55 0.63 0.63 0.59
0.13 0.15 0.17 0.17 0.18 0.19 0.20 0.24 0.26 0.29 0.30 0.31 0.30 0.32 0.34 0.35 0.33 0.32 0.32 0.33 0.35 0.38 0.38 0.39 0.42 0.45 0.50 0.56 0.52 0.45 0.41 0.42 0.47 0.56 0.56 0.56 0.52 0.47
0.15 0.14 0.15 0.16 0.17 0.19 0.23 0.24 0.25 0.29 0.31 0.31 0.33 0.34 0.35 0.36 0.36 0.35 0.35 0.34 0.35 0.38 0.40 0.41 0.43 0.46 0.47 0.48 0.47 0.44 0.42 0.43 0.45 0.48 0.48 0.50 0.47 0.43

GEFSNE_prec_meanprecacc_138.txt.gz
Total_Precipitation_Accumulation
1.64 1.65 1.65 1.58 1.57 1.56 1.65 1.70 1.69 1.46 1.19 0.93 0.78 0.67 0.78 0.84 1.08 1.06 0.92 0.94 0.85 0.71 0.62 0.56 0.58 0.61 0.71 0.80 0.95 1.12 1.28 1.31 1.23 1.13 1.08 1.05 1.04 1.14
1.41 1.45 1.49 1.50 1.56 1.56 1.62 1.69 1.66 1.54 1.36 1.11 0.92 0.81 0.87 0.82 0.95 0.92 0.98 1.12 0.95 0.79 0.68 0.61 0.57 0.57 0.58 0.58 0.60 0.60 0.66 0.72 0.75 0.80 0.81 0.82 0.88 1.00
1.06 1.10 1.17 1.24 1.33 1.38 1.49 1.57 1.60 1.54 1.29 1.14 1.00 0.90 0.95 0.99 0.99 0.94 1.00 1.02 0.93 0.86 0.73 0.63 0.60 0.57 0.58 0.58 0.58 0.53 0.52 0.52 0.56 0.62 0.69 0.70 0.67 0.65
0.81 0.88 0.93 0.99 1.10 1.18 1.25 1.34 1.47 1.50 1.39 1.24 1.10 0.99 0.91 0.95 1.11 1.15 1.13 1.07 1.05 1.13 1.02 0.85 0.74 0.66 0.62 0.62 0.64 0.60 0.55 0.53 0.51 0.53 0.57 0.62 0.68 0.67
0.53 0.58 0.67 0.75 0.89 0.98 1.03 1.11 1.27 1.31 1.38 1.28 1.21 1.13 0.98 0.92 1.05 1.07 1.17 1.34 1.24 1.31 1.44 1.25 0.98 0.82 0.71 0.70 0.74 0.71 0.64 0.57 0.52 0.52 0.58 0.63 0.62 0.66
0.50 0.50 0.53 0.55 0.63 0.74 0.87 1.05 1.22 1.35 1.39 1.32 1.27 1.23 1.14 1.05 1.12 1.18 1.28 1.38 1.42 1.29 1.33 1.30 1.24 1.11 0.93 0.83 0.85 0.88 0.85 0.77 0.69 0.65 0.63 0.64 0.62 0.61
0.47 0.51 0.53 0.49 0.49 0.54 0.55 0.73 0.95 1.18 1.30 1.36 1.36 1.37 1.30 1.23 1.15 1.22 1.31 1.46 1.58 1.58 1.49 1.34 1.30 1.17 1.05 0.96 0.91 0.93 0.97 0.96 0.91 0.81 0.75 0.74 0.70 0.67
0.51 0.55 0.53 0.48 0.53 0.51 0.49 0.52 0.62 0.78 0.96 1.09 1.18 1.23 1.27 1.35 1.45 1.45 1.45 1.53 1.60 1.60 1.48 1.51 1.46 1.34 1.17 1.00 1.00 1.02 1.04 1.06 1.03 0.95 0.85 0.77 0.75 0.75
0.48 0.62 0.68 0.62 0.61 0.65 0.66 0.60 0.54 0.53 0.69 0.87 0.99 1.04 1.11 1.22 1.46 1.50 1.49 1.51 1.44 1.49 1.36 1.43 1.40 1.28 1.19 1.15 1.16 1.10 1.11 1.06 1.04 0.99 0.94 0.87 0.81 0.81
0.44 0.56 0.81 0.86 0.75 0.70 0.75 0.85 0.77 0.61 0.61 0.66 0.81 0.91 0.96 1.13 1.46 1.67 1.62 1.42 1.37 1.42 1.34 1.35 1.31 1.20 1.14 1.12 1.16 1.08 1.06 1.01 0.97 0.96 0.92 0.88 0.86 0.86
0.38 0.50 0.67 0.82 0.75 0.71 0.71 0.78 0.82 0.72 0.66 0.68 0.65 0.72 0.84 1.01 1.27 1.52 1.65 1.59 1.43 1.38 1.25 1.18 1.21 1.21 1.23 1.19 1.13 1.11 1.05 1.04 1.02 1.00 0.99 0.95 0.92 0.97
0.24 0.41 0.56 0.55 0.52 0.59 0.70 0.81 0.90 0.74 0.65 0.74 0.73 0.75 0.77 0.95 1.27 1.47 1.59 1.58 1.47 1.43 1.33 1.23 1.23 1.25 1.41 1.37 1.20 1.13 1.08 1.11 1.11 1.07 1.05 1.05 1.10 1.08
0.19 0.33 0.40 0.37 0.37 0.45 0.57 0.70 0.83 0.69 0.71 0.86 0.90 0.87 0.94 0.99 1.11 1.24 1.44 1.56 1.46 1.31 1.25 1.36 1.42 1.33 1.28 1.29 1.27 1.19 1.12 1.06 1.05 1.05 1.06 1.06 1.09 1.06
0.20 0.26 0.29 0.26 0.28 0.33 0.38 0.49 0.60 0.68 0.77 0.91 0.98 0.94 0.90 0.96 1.02 1.05 1.15 1.27 1.27 1.21 1.13 1.09 1.18 1.14 1.08 1.02 1.01 1.07 1.10 1.08 1.05 1.03 1.04 1.16 1.12 1.12
0.18 0.22 0.24 0.26 0.29 0.30 0.32 0.39 0.54 0.73 0.90 0.91 0.84 0.81 0.83 0.89 0.90 1.01 1.09 1.13 1.16 1.17 1.07 0.92 0.92 0.98 0.97 0.93 0.86 0.87 0.97 1.03 1.00 0.94 0.94 0.98 0.99 1.04
0.18 0.19 0.20 0.25 0.29 0.29 0.34 0.46 0.62 0.82 0.90 0.81 0.76 0.66 0.67 0.82 0.88 0.89 0.94 0.96 1.02 1.08 1.00 0.93 0.90 0.88 0.89 0.86 0.82 0.79 0.79 0.85 0.90 0.93 0.91 0.88 0.88 0.91
0.17 0.24 0.28 0.34 0.39 0.46 0.56 0.65 0.67 0.71 0.77 0.69 0.73 0.67 0.63 0.70 0.74 0.75 0.77 0.74 0.75 0.76 0.79 0.81 0.83 0.81 0.80 0.82 0.83 0.79 0.79 0.75 0.74 0.84 0.91 0.90 0.85 0.86
0.20 0.28 0.36 0.44 0.50 0.58 0.64 0.65 0.65 0.67 0.70 0.66 0.65 0.64 0.59 0.59 0.61 0.62 0.66 0.69 0.72 0.70 0.64 0.61 0.63 0.69 0.74 0.80 0.79 0.74 0.77 0.78 0.79 0.81 0.82 0.81 0.75 0.75
0.18 0.29 0.48 0.54 0.52 0.58 0.63 0.61 0.53 0.47 0.48 0.50 0.49 0.48 0.46 0.47 0.51 0.53 0.54 0.61 0.63 0.59 0.60 0.60 0.60 0.63 0.65 0.60 0.57 0.56 0.66 0.70 0.72 0.76 0.78 0.75 0.70 0.67
0.14 0.21 0.34 0.38 0.41 0.47 0.48 0.45 0.39 0.33 0.33 0.34 0.34 0.35 0.36 0.39 0.40 0.43 0.44 0.44 0.50 0.50 0.50 0.52 0.53 0.55 0.58 0.58 0.53 0.46 0.48 0.55 0.59 0.63 0.65 0.68 0.71 0.81
0.14 0.19 0.24 0.27 0.28 0.28 0.28 0.29 0.29 0.30 0.30 0.30 0.31 0.33 0.34 0.35 0.34 0.34 0.37 0.40 0.41 0.41 0.43 0.43 0.42 0.49 0.53 0.59 0.57 0.45 0.40 0.46 0.51 0.52 0.58 0.67 0.67 0.62
0.13 0.15 0.17 0.17 0.18 0.19 0.21 0.24 0.26 0.29 0.31 0.31 0.30 0.32 0.34 0.35 0.33 0.32 0.32 0.33 0.35 0.38 0.38 0.39 0.42 0.46 0.50 0.57 0.53 0.45 0.41 0.42 0.47 0.57 0.58 0.59 0.55 0.51
0.15 0.14 0.15 0.16 0.17 0.19 0.23 0.24 0.25 0.29 0.31 0.32 0.33 0.34 0.36 0.36 0.36 0.36 0.35 0.35 0.35 0.38 0.40 0.42 0.43 0.46 0.48 0.48 0.47 0.45 0.43 0.43 0.46 0.49 0.49 0.52 0.50 0.46

GEFSNE_prec_meanprecacc_144.txt.gz
Total_Precipitation_Accumulation
1.65 1.66 1.65 1.58 1.57 1.56 1.65 1.70 1.69 1.47 1.20 0.96 0.80 0.70 0.80 0.86 1.10 1.07 0.92 0.94 0.85 0.72 0.63 0.57 0.59 0.62 0.72 0.83 1.01 1.17 1.32 1.35 1.27 1.16 1.15 1.13 1.11 1.20
1.41 1.45 1.50 1.51 1.56 1.56 1.62 1.69 1.66 1.55 1.37 1.13 0.95 0.84 0.89 0.84 0.97 0.94 0.99 1.13 0.95 0.79 0.69 0.62 0.58 0.58 0.59 0.59 0.62 0.64 0.69 0.75 0.79 0.84 0.86 0.88 0.94 1.05
1.06 1.10 1.18 1.24 1.33 1.38 1.50 1.57 1.60 1.54 1.30 1.16 1.03 0.94 0.98 1.01 1.01 0.97 1.02 1.03 0.94 0.86 0.74 0.63 0.60 0.57 0.59 0.59 0.60 0.56 0.55 0.54 0.58 0.66 0.72 0.73 0.70 0.69
0.81 0.88 0.93 0.99 1.10 1.18 1.25 1.34 1.47 1.50 1.40 1.25 1.13 1.02 0.93 0.96 1.12 1.17 1.15 1.09 1.07 1.14 1.04 0.87 0.76 0.67 0.62 0.62 0.66 0.63 0.59 0.57 0.54 0.55 0.59 0.65 0.70 0.69
0.53 0.59 0.67 0.75 0.90 0.99 1.03 1.11 1.27 1.31 1.39 1.29 1.22 1.15 1.00 0.94 1.07 1.09 1.19 1.35 1.25 1.33 1.46 1.27 1.01 0.83 0.73 0.71 0.74 0.73 0.68 0.62 0.55 0.53 0.59 0.65 0.64 0.68
0.50 0.50 0.53 0.55 0.63 0.74 0.87 1.05 1.22 1.35 1.40 1.35 1.30 1.25 1.17 1.07 1.13 1.22 1.31 1.39 1.43 1.30 1.33 1.32 1.27 1.13 0.95 0.84 0.86 0.89 0.86 0.80 0.74 0.68 0.65 0.66 0.64 0.63
0.47 0.51 0.53 0.49 0.49 0.54 0.55 0.73 0.95 1.19 1.31 1.37 1.37 1.38 1.31 1.24 1.17 1.26 1.33 1.47 1.58 1.59 1.49 1.35 1.32 1.19 1.06 0.97 0.92 0.94 0.98 0.97 0.92 0.82 0.76 0.75 0.71 0.69
0.51 0.55 0.53 0.49 0.53 0.51 0.49 0.52 0.62 0.78 0.97 1.10 1.19 1.24 1.27 1.36 1.47 1.47 1.45 1.53 1.61 1.61 1.49 1.52 1.47 1.35 1.18 1.01 1.00 1.03 1.05 1.07 1.04 0.96 0.86 0.78 0.75 0.76
0.48 0.62 0.68 0.63 0.62 0.65 0.66 0.60 0.54 0.53 0.69 0.87 0.99 1.04 1.12 1.23 1.47 1.51 1.49 1.52 1.45 1.50 1.37 1.44 1.40 1.29 1.20 1.16 1.17 1.10 1.11 1.07 1.06 1.00 0.97 0.90 0.82 0.83
0.44 0.56 0.81 0.86 0.75 0.71 0.75 0.85 0.77 0.61 0.61 0.66 0.81 0.92 0.97 1.13 1.47 1.69 1.63 1.42 1.37 1.43 1.34 1.36 1.32 1.20 1.14 1.12 1.17 1.08 1.07 1.03 0.99 0.99 0.97 0.94 0.89 0.89
0.38 0.50 0.67 0.82 0.75 0.71 0.71 0.78 0.82 0.72 0.66 0.68 0.65 0.72 0.85 1.02 1.28 1.55 1.66 1.59 1.43 1.39 1.26 1.18 1.21 1.22 1.24 1.19 1.13 1.12 1.05 1.06 1.05 1.03 1.04 1.03 0.99 1.04
0.24 0.41 0.56 0.55 0.52 0.59 0.70 0.81 0.90 0.74 0.65 0.74 0.73 0.75 0.78 0.96 1.28 1.49 1.60 1.58 1.47 1.43 1.33 1.23 1.23 1.26 1.44 1.39 1.21 1.15 1.09 1.12 1.13 1.10 1.09 1.12 1.17 1.15
0.19 0.33 0.40 0.37 0.37 0.45 0.57 0.70 0.83 0.69 0.71 0.86 0.90 0.88 0.95 1.00 1.12 1.27 1.46 1.57 1.47 1.31 1.25 1.36 1.42 1.34 1.31 1.31 1.28 1.20 1.13 1.07 1.06 1.08 1.09 1.09 1.14 1.12
0.20 0.26 0.29 0.26 0.28 0.33 0.38 0.49 0.60 0.68 0.77 0.91 0.98 0.94 0.90 0.97 1.02 1.07 1.18 1.29 1.27 1.22 1.13 1.09 1.18 1.16 1.10 1.03 1.02 1.08 1.10 1.08 1.05 1.04 1.06 1.18 1.15 1.16
0.18 0.22 0.24 0.26 0.29 0.30 0.32 0.39 0.54 0.73 0.91 0.92 0.84 0.81 0.84 0.90 0.91 1.02 1.10 1.14 1.17 1.17 1.07 0.92 0.92 0.98 0.98 0.93 0.86 0.87 0.98 1.03 1.00 0.95 0.94 0.99 1.01 1.06
0.18 0.19 0.20 0.25 0.29 0.29 0.34 0.46 0.62 0.82 0.90 0.82 0.76 0.66 0.68 0.82 0.88 0.90 0.94 0.96 1.02 1.08 1.00 0.93 0.90 0.88 0.89 0.86 0.82 0.80 0.80 0.85 0.91 0.93 0.91 0.88 0.88 0.92
0.17 0.24 0.28 0.34 0.39 0.46 0.57 0.65 0.67 0.71 0.77 0.69 0.73 0.67 0.63 0.70 0.74 0.75 0.77 0.74 0.75 0.76 0.79 0.81 0.83 0.81 0.80 0.82 0.83 0.79 0.79 0.76 0.75 0.85 0.92 0.91 0.86 0.86
0.20 0.28 0.36 0.44 0.50 0.58 0.64 0.65 0.65 0.67 0.70 0.66 0.65 0.64 0.59 0.59 0.61 0.62 0.66 0.69 0.72 0.70 0.64 0.61 0.63 0.69 0.74 0.80 0.80 0.74 0.77 0.79 0.79 0.82 0.83 0.82 0.76 0.75
0.18 0.29 0.48 0.54 0.52 0.58 0.63 0.61 0.53 0.47 0.48 0.50 0.49 0.48 0.46 0.47 0.51 0.53 0.54 0.61 0.63 0.59 0.60 0.61 0.60 0.63 0.65 0.60 0.57 0.56 0.66 0.71 0.73 0.76 0.78 0.76 0.70 0.68
0.14 0.21 0.34 0.38 0.41 0.47 0.48 0.45 0.39 0.33 0.33 0.34 0.34 0.35 0.36 0.39 0.40 0.43 0.44 0.44 0.50 0.50 0.50 0.52 0.54 0.55 0.58 0.58 0.53 0.46 0.48 0.56 0.59 0.63 0.65 0.69 0.71 0.82
0.14 0.19 0.24 0.27 0.28 0.28 0.28 0.29 0.29 0.30 0.30 0.30 0.31 0.33 0.34 0.35 0.34 0.34 0.37 0.40 0.41 0.41 0.43 0.43 0.42 0.49 0.54 0.60 0.57 0.45 0.40 0.46 0.51 0.52 0.59 0.68 0.67 0.63
0.13 0.15 0.17 0.17 0.18 0.19 0.21 0.24 0.26 0.29 0.31 0.31 0.30 0.32 0.34 0.35 0.33 0.32 0.32 0.33 0.35 0.38 0.38 0.39 0.42 0.46 0.51 0.57 0.53 0.45 0.41 0.42 0.47 0.57 0.58 0.59 0.57 0.52
0.15 0.14 0.15 0.16 0.17 0.19 0.23 0.24 0.25 0.29 0.31 0.32 0.33 0.34 0.36 0.36 0.36 0.36 0.35 0.35 0.35 0.38 0.40 0.42 0.43 0.46 0.48 0.48 0.48 0.45 0.43 0.43 0.46 0.49 0.49 0.52 0.50 0.47

GEFSNE_prec_meanprecacc_150.txt.gz
Total_Precipitation_Accumulation
1.66 1.66 1.66 1.58 1.57 1.57 1.66 1.72 1.72 1.50 1.22 0.97 0.81 0.71 0.82 0.88 1.12 1.09 0.94 0.96 0.87 0.73 0.64 0.58 0.61 0.65 0.76 0.88 1.05 1.20 1.35 1.38 1.31 1.20 1.19 1.17 1.16 1.24
1.41 1.46 1.50 1.51 1.56 1.56 1.63 1.70 1.67 1.57 1.39 1.15 0.97 0.87 0.92 0.87 0.99 0.95 1.00 1.14 0.96 0.81 0.70 0.63 0.60 0.61 0.61 0.61 0.65 0.68 0.71 0.77 0.81 0.87 0.89 0.91 0.98 1.10
1.06 1.11 1.18 1.24 1.33 1.39 1.50 1.57 1.61 1.56 1.32 1.18 1.05 0.98 1.01 1.02 1.02 0.97 1.03 1.06 0.95 0.87 0.75 0.65 0.63 0.60 0.61 0.61 0.62 0.58 0.57 0.56 0.60 0.67 0.74 0.75 0.73 0.72
0.82 0.88 0.93 0.99 1.10 1.18 1.25 1.35 1.48 1.51 1.41 1.26 1.14 1.04 0.94 0.97 1.12 1.17 1.16 1.10 1.08 1.15 1.05 0.89 0.79 0.71 0.65 0.65 0.67 0.65 0.62 0.58 0.55 0.56 0.61 0.67 0.71 0.71
0.53 0.59 0.67 0.75 0.90 0.99 1.03 1.12 1.27 1.32 1.40 1.30 1.23 1.16 1.01 0.94 1.10 1.13 1.21 1.36 1.26 1.35 1.50 1.31 1.05 0.87 0.76 0.75 0.77 0.76 0.71 0.64 0.56 0.54 0.61 0.67 0.67 0.70
0.50 0.50 0.53 0.55 0.64 0.74 0.87 1.06 1.23 1.36 1.41 1.35 1.30 1.26 1.18 1.08 1.15 1.25 1.33 1.41 1.45 1.32 1.36 1.34 1.28 1.16 0.98 0.87 0.89 0.91 0.88 0.80 0.74 0.68 0.66 0.67 0.65 0.65
0.47 0.51 0.53 0.49 0.50 0.54 0.55 0.73 0.96 1.19 1.31 1.38 1.38 1.39 1.32 1.26 1.19 1.29 1.36 1.50 1.60 1.60 1.51 1.36 1.32 1.19 1.08 0.99 0.94 0.95 0.99 0.97 0.92 0.83 0.77 0.77 0.73 0.70
0.51 0.55 0.53 0.49 0.53 0.51 0.49 0.52 0.63 0.78 0.97 1.10 1.19 1.24 1.28 1.37 1.48 1.48 1.46 1.54 1.62 1.62 1.50 1.52 1.48 1.36 1.20 1.03 1.02 1.04 1.05 1.07 1.04 0.96 0.87 0.79 0.77 0.77
0.48 0.62 0.69 0.63 0.62 0.65 0.66 0.60 0.54 0.53 0.69 0.87 0.99 1.04 1.12 1.23 1.48 1.52 1.50 1.53 1.45 1.51 1.37 1.44 1.41 1.29 1.21 1.17 1.17 1.10 1.11 1.07 1.06 1.01 0.97 0.91 0.83 0.84
0.44 0.56 0.82 0.86 0.75 0.71 0.75 0.85 0.77 0.61 0.61 0.66 0.81 0.92 0.97 1.14 1.47 1.69 1.63 1.43 1.37 1.43 1.35 1.36 1.32 1.21 1.15 1.13 1.18 1.09 1.07 1.03 0.99 0.99 0.97 0.94 0.90 0.90
0.38 0.50 0.67 0.82 0.75 0.71 0.71 0.78 0.82 0.73 0.66 0.68 0.65 0.72 0.85 1.02 1.28 1.55 1.66 1.59 1.44 1.39 1.26 1.18 1.21 1.22 1.25 1.20 1.14 1.13 1.06 1.06 1.05 1.04 1.05 1.04 1.00 1.05
0.24 0.41 0.56 0.55 0.52 0.59 0.70 0.81 0.90 0.74 0.65 0.74 0.73 0.75 0.78 0.96 1.28 1.49 1.61 1.58 1.47 1.43 1.33 1.24 1.23 1.26 1.44 1.40 1.22 1.16 1.10 1.13 1.14 1.12 1.11 1.13 1.18 1.16
0.19 0.33 0.40 0.37 0.37 0.45 0.57 0.70 0.83 0.69 0.71 0.86 0.90 0.88 0.95 1.00 1.12 1.27 1.47 1.57 1.47 1.31 1.25 1.36 1.42 1.35 1.33 1.34 1.31 1.22 1.14 1.08 1.07 1.09 1.10 1.11 1.15 1.13
0.20 0.26 0.29 0.26 0.28 0.33 0.38 0.49 0.60 0.68 0.77 0.91 0.98 0.94 0.91 0.97 1.02 1.07 1.18 1.29 1.28 1.22 1.14 1.10 1.19 1.18 1.13 1.04 1.03 1.10 1.12 1.09 1.06 1.05 1.07 1.18 1.15 1.16
0.18 0.22 0.24 0.26 0.29 0.30 0.32 0.39 0.54 0.73 0.91 0.92 0.84 0.81 0.85 0.90 0.91 1.03 1.10 1.15 1.17 1.18 1.08 0.93 0.93 1.00 0.99 0.94 0.86 0.88 0.98 1.04 1.00 0.95 0.95 0.99 1.01 1.06
0.18 0.19 0.20 0.26 0.29 0.29 0.34 0.46 0.62 0.82 0.90 0.82 0.76 0.67 0.69 0.83 0.89 0.91 0.95 0.97 1.03 1.08 1.00 0.94 0.90 0.88 0.90 0.86 0.83 0.80 0.80 0.86 0.91 0.93 0.91 0.88 0.89 0.93
0.17 0.24 0.28 0.34 0.39 0.46 0.57 0.65 0.68 0.72 0.77 0.69 0.73 0.67 0.63 0.71 0.75 0.76 0.78 0.75 0.76 0.76 0.79 0.81 0.83 0.82 0.80 0.82 0.83 0.79 0.79 0.76 0.75 0.85 0.92 0.91 0.86 0.86
0.20 0.28 0.36 0.44 0.51 0.59 0.65 0.66 0.66 0.67 0.70 0.67 0.65 0.65 0.59 0.59 0.61 0.63 0.67 0.69 0.73 0.70 0.64 0.61 0.63 0.69 0.74 0.80 0.80 0.74 0.77 0.79 0.80 0.82 0.83 0.82 0.76 0.75
0.18 0.29 0.48 0.54 0.52 0.58 0.63 0.61 0.53 0.47 0.48 0.51 0.50 0.48 0.46 0.47 0.51 0.53 0.54 0.61 0.63 0.59 0.60 0.61 0.60 0.63 0.65 0.60 0.57 0.56 0.66 0.71 0.73 0.76 0.78 0.76 0.70 0.68
0.14 0.21 0.34 0.38 0.41 0.47 0.48 0.45 0.39 0.33 0.33 0.34 0.34 0.35 0.36 0.39 0.40 0.43 0.44 0.44 0.50 0.50 0.50 0.52 0.54 0.55 0.58 0.58 0.53 0.46 0.48 0.56 0.59 0.63 0.65 0.69 0.71 0.82
0.15 0.19 0.24 0.27 0.28 0.28 0.28 0.29 0.29 0.30 0.30 0.30 0.31 0.33 0.34 0.35 0.34 0.34 0.37 0.40 0.41 0.41 0.43 0.43 0.42 0.49 0.54 0.60 0.58 0.45 0.40 0.46 0.51 0.52 0.59 0.68 0.68 0.63
0.13 0.15 0.17 0.17 0.18 0.19 0.21 0.24 0.26 0.29 0.31 0.31 0.30 0.32 0.34 0.35 0.33 0.32 0.32 0.33 0.36 0.39 0.38 0.39 0.42 0.46 0.51 0.57 0.53 0.46 0.41 0.42 0.47 0.57 0.58 0.59 0.57 0.53
0.15 0.14 0.15 0.16 0.17 0.20 0.23 0.25 0.25 0.29 0.31 0.32 0.33 0.34 0.36 0.36 0.36 0.36 0.35 0.35 0.36 0.38 0.41 0.42 0.44 0.46 0.48 0.49 0.48 0.45 0.43 0.44 0.46 0.49 0.49 0.52 0.50 0.47

GEFSNE_prec_meanprecacc_156.txt.gz
Total_Precipitation_Accumulation
1.66 1.67 1.67 1.60 1.58 1.58 1.68 1.74 1.76 1.54 1.25 1.00 0.84 0.74 0.86 0.94 1.18 1.13 0.95 0.97 0.88 0.75 0.66 0.61 0.66 0.72 0.84 0.97 1.14 1.30 1.43 1.43 1.33 1.22 1.21 1.22 1.22 1.30
1.42 1.46 1.51 1.52 1.57 1.58 1.64 1.70 1.69 1.60 1.42 1.18 1.00 0.91 0.98 0.91 1.03 0.97 1.01 1.15 0.98 0.82 0.72 0.65 0.63 0.65 0.68 0.69 0.73 0.75 0.79 0.83 0.84 0.90 0.92 0.95 1.03 1.15
1.07 1.12 1.18 1.25 1.34 1.40 1.52 1.59 1.62 1.58 1.36 1.20 1.07 1.03 1.06 1.05 1.04 1.00 1.05 1.08 0.98 0.88 0.76 0.67 0.64 0.63 0.65 0.67 0.69 0.66 0.63 0.61 0.63 0.69 0.77 0.78 0.76 0.76
0.83 0.90 0.94 1.00 1.11 1.19 1.27 1.36 1.49 1.53 1.44 1.28 1.16 1.07 0.98 1.00 1.15 1.20 1.19 1.12 1.10 1.16 1.06 0.91 0.81 0.74 0.69 0.70 0.74 0.73 0.68 0.62 0.58 0.58 0.63 0.69 0.73 0.73
0.54 0.61 0.69 0.77 0.91 1.00 1.05 1.13 1.29 1.33 1.42 1.32 1.25 1.18 1.04 0.97 1.13 1.16 1.24 1.40 1.29 1.37 1.52 1.33 1.07 0.89 0.79 0.79 0.81 0.79 0.74 0.66 0.57 0.55 0.62 0.68 0.67 0.71
0.50 0.51 0.54 0.56 0.65 0.75 0.88 1.07 1.24 1.37 1.43 1.37 1.32 1.28 1.21 1.10 1.18 1.28 1.36 1.46 1.48 1.34 1.38 1.35 1.29 1.17 0.99 0.89 0.90 0.93 0.90 0.82 0.75 0.69 0.67 0.68 0.67 0.66
0.47 0.52 0.53 0.50 0.50 0.54 0.55 0.74 0.96 1.20 1.32 1.39 1.39 1.41 1.35 1.29 1.22 1.33 1.40 1.55 1.65 1.63 1.52 1.37 1.34 1.20 1.08 1.00 0.94 0.96 1.00 0.98 0.93 0.83 0.78 0.78 0.74 0.72
0.51 0.56 0.54 0.49 0.53 0.52 0.49 0.53 0.63 0.78 0.97 1.11 1.20 1.25 1.29 1.39 1.50 1.50 1.48 1.56 1.64 1.64 1.51 1.53 1.48 1.36 1.20 1.03 1.03 1.05 1.06 1.07 1.04 0.96 0.87 0.79 0.78 0.79
0.48 0.63 0.69 0.63 0.62 0.65 0.66 0.60 0.54 0.54 0.69 0.87 0.99 1.05 1.13 1.24 1.48 1.52 1.51 1.54 1.47 1.52 1.38 1.44 1.41 1.30 1.22 1.17 1.18 1.11 1.11 1.07 1.06 1.01 0.97 0.91 0.84 0.85
0.44 0.57 0.82 0.86 0.75 0.71 0.75 0.85 0.77 0.61 0.61 0.66 0.81 0.92 0.97 1.14 1.48 1.70 1.64 1.44 1.38 1.45 1.36 1.36 1.32 1.21 1.15 1.13 1.18 1.09 1.07 1.03 0.99 0.99 0.97 0.95 0.90 0.90
0.38 0.50 0.67 0.82 0.75 0.71 0.71 0.79 0.83 0.73 0.66 0.68 0.65 0.73 0.85 1.02 1.28 1.55 1.67 1.60 1.44 1.39 1.27 1.18 1.21 1.22 1.25 1.20 1.15 1.13 1.06 1.06 1.06 1.04 1.06 1.04 1.01 1.06
0.25 0.41 0.56 0.55 0.52 0.59 0.70 0.81 0.90 0.75 0.65 0.74 0.73 0.75 0.78 0.96 1.28 1.50 1.62 1.59 1.47 1.43 1.33 1.24 1.23 1.26 1.44 1.40 1.22 1.17 1.11 1.13 1.14 1.12 1.11 1.14 1.19 1.17
0.19 0.33 0.40 0.37 0.37 0.46 0.57 0.70 0.83 0.69 0.71 0.86 0.90 0.88 0.95 1.00 1.12 1.27 1.47 1.58 1.48 1.31 1.25 1.36 1.42 1.35 1.33 1.35 1.32 1.23 1.15 1.08 1.07 1.09 1.10 1.11 1.16 1.14
0.20 0.26 0.29 0.26 0.28 0.33 0.38 0.49 0.60 0.68 0.77 0.91 0.98 0.94 0.91 0.97 1.02 1.07 1.18 1.29 1.28 1.23 1.14 1.10 1.19 1.18 1.14 1.05 1.04 1.12 1.13 1.10 1.06 1.05 1.07 1.18 1.16 1.17
0.18 0.22 0.24 0.26 0.29 0.30 0.32 0.39 0.54 0.73 0.91 0.92 0.84 0.81 0.85 0.90 0.91 1.03 1.10 1.15 1.17 1.18 1.08 0.93 0.94 1.00 1.00 0.94 0.87 0.89 0.99 1.04 1.01 0.96 0.95 1.00 1.02 1.06
0.19 0.20 0.20 0.26 0.29 0.29 0.34 0.46 0.63 0.82 0.90 0.82 0.76 0.67 0.69 0.83 0.89 0.91 0.95 0.97 1.03 1.08 1.00 0.94 0.90 0.88 0.90 0.87 0.83 0.81 0.80 0.86 0.91 0.93 0.92 0.89 0.89 0.93
0.17 0.24 0.28 0.35 0.40 0.47 0.57 0.66 0.68 0.72 0.77 0.69 0.73 0.68 0.64 0.71 0.75 0.76 0.78 0.75 0.76 0.76 0.79 0.81 0.84 0.82 0.80 0.82 0.84 0.80 0.80 0.76 0.75 0.85 0.92 0.91 0.86 0.86
0.21 0.29 0.37 0.45 0.51 0.59 0.65 0.66 0.66 0.67 0.70 0.67 0.65 0.65 0.59 0.59 0.61 0.63 0.67 0.70 0.73 0.70 0.64 0.61 0.63 0.70 0.74 0.80 0.80 0.74 0.77 0.79 0.80 0.82 0.83 0.82 0.76 0.75
0.19 0.29 0.49 0.54 0.53 0.59 0.63 0.62 0.53 0.48 0.49 0.51 0.50 0.48 0.46 0.47 0.51 0.53 0.54 0.61 0.63 0.59 0.60 0.61 0.60 0.63 0.65 0.61 0.57 0.56 0.66 0.71 0.73 0.76 0.78 0.76 0.70 0.68
0.14 0.21 0.34 0.38 0.41 0.47 0.48 0.46 0.39 0.33 0.33 0.34 0.34 0.35 0.37 0.39 0.40 0.43 0.44 0.44 0.50 0.51 0.50 0.52 0.54 0.55 0.58 0.58 0.53 0.46 0.48 0.56 0.59 0.63 0.65 0.69 0.71 0.82
0.15 0.19 0.24 0.27 0.28 0.28 0.29 0.29 0.29 0.31 0.30 0.30 0.31 0.33 0.34 0.35 0.34 0.34 0.37 0.41 0.41 0.41 0.43 0.43 0.42 0.50 0.54 0.60 0.58 0.45 0.40 0.46 0.51 0.52 0.59 0.68 0.68 0.63
0.14 0.15 0.17 0.17 0.18 0.20 0.21 0.25 0.27 0.30 0.32 0.32 0.31 0.32 0.34 0.35 0.34 0.32 0.32 0.33 0.36 0.39 0.39 0.39 0.42 0.46 0.51 0.57 0.54 0.46 0.41 0.43 0.47 0.57 0.58 0.59 0.57 0.53
0.15 0.15 0.15 0.16 0.17 0.20 0.23 0.25 0.26 0.30 0.32 0.32 0.33 0.35 0.36 0.37 0.37 0.36 0.35 0.35 0.36 0.39 0.41 0.42 0.44 0.47 0.48 0.49 0.48 0.46 0.44 0.44 0.47 0.49 0.49 0.52 0.50 0.47